Regional Weather Roundup
Issued by NWS Wakefield, VA

Home | Current Version | Previous Version | Text Only | Print | Product List | Glossary Off
Versions: 1 2 3 4 5 6 7 8 9 10 11 12 13 14 15 16 17 18 19 20 21 22 23 24 25 26 27 28 29 30 31 32 33 34 35 36 37 38 39 40 41 42 43 44 45 46 47 48 49
000 ASUS41 KAKQ 291316 RWRAKQ REGIONAL WEATHER ROUNDUP NATIONAL WEATHER SERVICE WAKEFIELD VA 900 AM EDT FRI MAY 29 2020 Note: "fair" indicates few or no clouds below 12,000 feet with no significant weather and/or obstructions to visibility. * = Denotes station may not report precipitation (e.g., rain,snow,etc.), thunder or fog. VAZ042-051-052>054-056-291400- NORTHERN VIRGINIA CITY SKY/WX TMP DP RH WIND PRES REMARKS WASH NATIONAL CLOUDY 77 72 84 S10 30.04S DULLES PTSUNNY 77 70 79 S14 30.03S FORT BELVOIR CLOUDY 76 72 86 S5 30.04S QUANTICO CLOUDY 73 70 90 S12 30.04F FOG FREDERICKSBRG* CLOUDY 78 74 89 S10 30.04S STAFFORD* CLOUDY 77 77 100 S7 30.08F WARRENTON CLOUDY 78 72 82 S3 30.03F CULPEPER* CLOUDY 79 73 80 SW5 30.04F MANASSAS* CLOUDY 75 73 94 S9 30.03F LEESBURG* CLOUDY 73 70 88 S9 30.04F WINCHESTER MOSUNNY 73 68 83 S6 30.01S FRONT ROYAL* FAIR 77 70 78 SW7 30.02S LURAY* FAIR 77 68 73 S7 30.04S $$ VAZ048-049-060>072-079>083-291400- CENTRAL AND SOUTH CENTRAL VIRGINIA CITY SKY/WX TMP DP RH WIND PRES REMARKS RICHMOND PTSUNNY 77 73 87 S13 30.07S CHESTERFIELD* CLOUDY 76 73 91 SW8 30.08S PETERSBURG* CLOUDY 77 71 82 S3 30.08S HANOVER PTSUNNY 78 71 79 S8 30.07S TAPPAHANNOCK* MOSUNNY 75 75 100 S8 30.07F QUINTON* CLOUDY 74 74 100 S6 30.07S CHARLOTTSVILLE PTSUNNY 79 71 76 S10 30.04F GORDONSVILLE* PTSUNNY 77 75 95 SW10 30.04F ORANGE* CLOUDY 75 72 88 S8 30.04F LOUISA* CLOUDY 76 71 85 SW8 30.09F BUMPASS* CLOUDY 77 74 91 SW7 30.05F FARMVILLE* CLOUDY 74 71 89 S3 30.06S CREWE* NOT AVBL FORT PICKETT* PTSUNNY 76 76 100 SW6 30.08S CHASE CITY* CLOUDY 74 72 93 CALM 30.09R CLARKSVILLE* CLOUDY 73 73 100 SW5 30.08R SOUTH HILL* CLOUDY 75 73 91 S7 30.13F LAWRENCEVILLE* CLOUDY 77 73 88 S7 30.08S EMPORIA* CLOUDY 76 73 89 CALM 30.09F $$ VAZ088>098-291400- SOUTHEAST VIRGINIA CITY SKY/WX TMP DP RH WIND PRES REMARKS NORFOLK PTSUNNY 79 74 84 S12G20 30.08S VIRGINIA BEACH PTSUNNY 78 73 84 S9 30.09S NORFOLK NAVAL CLOUDY 79 74 84 S7 30.10S WEST POINT* CLOUDY 76 74 92 S7 30.09S SALUDA* CLOUDY 76 76 100 S5 30.08S NEWPORT NEWS CLOUDY 78 72 81 S8 30.09R LANGLEY AFB CLOUDY 76 76 100 S13 30.09S FORT EUSTIS CLOUDY 76 73 88 S5 30.06S WILLIAMSBURG* MOSUNNY 77 75 94 CALM 30.09S HR EXEC AP* CLOUDY N/A N/A N/A S5 30.10S FRANKLIN* CLOUDY 76 75 98 S3 30.09S US460-WAKEFLD CLOUDY 76 73 91 VRB3 30.08S $$ VAZ020-022-025-037-045-291400- WEST CENTRAL AND SOUTHWEST VIRGINIA CITY SKY/WX TMP DP RH WIND PRES REMARKS STAUNTON* MOSUNNY 75 68 78 SW6 30.08S WAYNESBORO* FAIR 75 68 80 SW3 30.08S HOT SPRINGS VA MOSUNNY 65 57 75 W13 30.19R HAZE LYNCHBURG CLOUDY 74 69 85 SW5 30.08S DANVILLE CLOUDY 75 71 87 SW7 30.08S SOUTH BOSTON* CLOUDY 76 72 87 S5 30.08S MARTINSVILLE CLOUDY 72 70 92 CALM 30.12R ROANOKE PTSUNNY 74 69 85 CALM 30.10S BLACKSBURG PTSUNNY 72 71 96 CALM 30.15S DUBLIN* CLOUDY 69 69 100 CALM 30.13S MARION* CLOUDY 65 65 100 CALM 30.16S HILLSVILLE* CLOUDY 66 65 96 CALM 30.14R RICHLANDS* PTSUNNY N/A N/A N/A CALM 30.14R WISE* CLOUDY 64 64 100 SW3 30.14S ABINGDON* CLOUDY 64 63 95 E3 30.12R $$ MDZ021>025-VAZ099-100-291400- SOUTHERN MARYLAND AND THE DELMARVA PENINSULA CITY SKY/WX TMP DP RH WIND PRES REMARKS PATUXENT RIVER CLOUDY 76 72 87 S8 30.06R BAY BRIDGE APT NOT AVBL LEONARDTOWN NOT AVBL DOVER PTSUNNY 77 73 87 S13 30.04S GEORGETOWN CLOUDY 78 73 84 S9 30.07S EASTON MOSUNNY 79 73 83 S13G18 30.10R CAMBRIDGE NOT AVBL SALISBURY CLOUDY 78 71 79 S10 30.07F TANGIER FAIR 75 72 91 S12 30.08S OCEAN CITY CLOUDY 69 66 90 S7 30.10S WALLOPS ISLAND CLOUDY 71 70 96 S12 30.10S ACCOMACK* NOT AVBL $$ NCZ012>017-030>032-291400- NORTH CENTRAL AND EASTERN NORTH CAROLINA CITY SKY/WX TMP DP RH WIND PRES REMARKS ROANOKE RAPIDS PTSUNNY 73 73 100 S7 30.08F RALEIGH LGT RAIN 74 73 97 S5 30.10R ELIZABETH CITY LGT RAIN 77 74 90 S9 30.10S AHOSKIE* CLOUDY 75 75 100 S5 30.10R EDENTON* LGT RAIN 76 75 98 S6 30.12R CURRITUCK* CLOUDY 76 75 96 S6 30.10S KILL DEVIL HLS RAIN 73 73 100 CALM 30.12S MANTEO RAIN 72 71 97 S13 30.14R CAPE HATTERAS LGT RAIN 75 73 93 SW8 30.14S FOG TARBORO* CLOUDY 76 74 92 S3 30.09S FOG GOLDSBORO PTSUNNY 78 77 97 SW7 30.08S WASHINGTON LGT RAIN 75 73 93 S6 30.11S GREENVILLE PTSUNNY 79 73 83 SW8 30.11S NEW BERN MOSUNNY 77 74 90 SW6 30.12R WILMINGTON PTSUNNY 77 74 90 SW10 30.10S $$ VAZ048-291400- ELSEWHERE CITY SKY/WX TMP DP RH WIND PRES REMARKS HARRISBURG PA PTSUNNY 77 69 76 S13G20 30.00S BALTIMORE CLOUDY 77 71 82 VRB6 30.02F ANNAPOLIS PTSUNNY 73 70 90 S14 30.04S ANDREWS AFB PTSUNNY 78 72 82 S12 30.04S PHILADELPHIA CLOUDY 76 70 82 S9 30.04S HENDERSON NC CLOUDY 71 71 99 SW6 30.09R GREENSBORO CLOUDY 72 70 93 S5 30.08F ROCKY MOUNT HVY RAIN 75 74 96 S5 30.10R FOG $$ VAZ100-291400- MARINE STATION/POSITION TIME TEMP WIND PRES WAVE SWELL AIR SEA DIR/SP/G HT/PER HT/PER (UTC) (F) (DEG/KT/KT) (MB) (FT/S) (FT/S) CAPE MAY NJ 1230 67 63 140/ 8/ 11 1018.5S LEWES DE 1230 76 60 210/ 6/ 13 1018.5F 15NM E FENWICK I 1250 62 1014.5F 4/ 7 OCEAN-CITY-INLET 1230 62 62 200/ 9/ 11 1020.2R WACHAPREAGUE VA 1230 71 73 220/ 8/ 11 1019.1F THOMAS POINT MD 1300 69 67 150/ 14/ 15 1018.2R GOOSES REEF MD 1254 68 180/ 12/ 14 N/A COVE POINT MD 1230 160/ 10/ 12 1018.6R SOLOMONS ISLAND 1230 70 67 130/ 4/ 4 1017.9R BISHOPS HEAD MD 1230 72 72 180/ 11/ 13 1018.2R PINEY POINT MD 1230 160/ 7/ 7 N/A POTOMAC MD 1254 68 80/ 8/ 14 1018.4R CAMBRIDGE MD 1230 76 68 200/ 7/ 11 1017.9S LEWISETTA VA 1230 75 67 200/ 9/ 10 1018.1R RAPPAHANNOCK LGT 1230 150/ 11/ 12 1019.7S STINGRAY PT 1254 67 180/ 10/ 14 1022.3F YORKTOWN VA 1230 76 68 200/ 7/ 11 1018.3R DOMINION TERM VA 1230 74 190/ 6/ 7 1019.2R KIPTOPEKE VA 1230 67 170/ 11/ 12 N/A CAPE HENRY VA 1230 76 170/ 7/ 10 1019.3S WILLOUBY STN VA 1230 76 180/ 14/ 16 1018.3F S CRANEY ISL VA 1230 75 180/ 10/ 11 1018.7S 1ST LANDING BUOY 1250 190/ 6/ 8 1018.6F 64NM E OF VA BCH 1250 61 56 170/ 8/ 10 1021.2F 5/ 7 5/ 7 DUCK PIER NC 1230 69 150/ 12/ 12 1019.4F 44100 DUCK FRF 1300 65 N/A 5/ 7 44056 DUCK FRF 1300 61 N/A 3/ 7 OREGON INLET NC 1224 74 72 170/ 11/ 15 1020.3 HATTERAS NC 1230 73 74 210/ 7/ 11 1020.6R DIAMOND SHLS NC 1250 74 80 220/ 16/ 19 1020.3 6/ 6 CAPE LOOKOUT NC 1300 76 210/ 8/ 11 1020.3R $$

USA.gov is the U.S. government's official web portal to all federal, state and local government web resources and services.